COSMOS 1275 DEB

Satellite information

Favourite Embed

Satellite Type and Status

DEBRISIN ORBIT

Key statistics

Satellite COSMOS 1275 DEB at a glance.

Uptime

16264

Days in orbit

Revolutions

≈ 13.9

Per day

Orbit

LEO

Low Earth Orbit

Inclination

83.0

Latest

Satellite identification and parameters

Extended collection of information and parameters for COSMOS 1275 DEB.

Object identification

Identified? True

Debris? True

Object name: COSMOS 1275 DEB

International designator: 1981-053L

Object number (NORAD): 12656

Object ID (CCSDS): 12656

Country: COMMONWEALTH OF INDEPENDENT STATES (CIS)

Current information (Y/N): Y

RCS size: MEDIUM

Orbital parameters

Period: 103.423 minutes

Inclination: 82.9606 deg

SMA: 7298.56 km

Apoapsis: 938.071 km

Periapsis: 902.779 km

RAAN: 193.6769 deg

Eccentricy: 0.00241773

Argument of periapsis: 255.8411 deg

Mean anomaly: 168.8051 deg

Mean motion: 13.92345301 rev/day

Mean motion (dot): 0.00000776 rev/day2

B* drag term: 0.00059125957 1/REarth

Two-line elements (TLE)

Creation date: Dec. 14, 2025, 3:07 a.m.

Reference frame: TEME

Reference center: EARTH

Epoch: Dec. 13, 2025, 3:03 p.m. UTC

TLE line 0: 0 COSMOS 1275 DEB

TLE line 1: 1 12656U 81053L 25347.62722613 .00000776 00000-0 59126-3 0 9993

TLE line 2: 2 12656 82.9606 193.6769 0024177 255.8411 168.8051 13.92345301242773

Live tracking on map

Real-time ground track for satellite COSMOS 1275 DEB.

In-orbit conjunctions

A list of the most updated potential collisions computed for object COSMOS 1275 DEB.

Target Orbit TCA Probability of collision Miss distance Type
SECOR 1B LEO 2025-09-30 02:26:55 0.0001025406 605.0 (m) PAYLOAD
THORAD AGENA D DEB SSO 2025-04-24 06:17:51 0.0001598533 230.0 (m) DEBRIS
COSMOS 1275 DEB LEO 2024-08-16 14:26:22 0.0007004489 87.0 (m) DEBRIS

Associated space launch

Navigation satellite providing location information for the Tsiklon-B navigation system

COSMOS 1275 DEB was lifted into orbit during the mission ‘Kosmos-3M | Parus 27’, on board a Kosmos-3M space rocket.

The launch took place on June 4, 1981, 3:41 p.m. from 132/2.

For more information about the launch, click the button.

Launch to space Kosmos-3M | Parus 27
Kosmos-3M | Parus 27

Agency: N/A

Status: Launch Successful

Launch date: June 4, 1981, 3:41 p.m. UTC

Rocket: Kosmos-3M

Launch pad: 132/2

Location: Plesetsk Cosmodrome, Russian Federation

...

Latest news about this satellite

There are no fresh news available about this satellite. Check back as we update our databases every day.


Newsletter sign-up

Weekly statistics, charts and insights to help you stay on top of the space industry.